Buffalo, NY

4:19 PM EST on December 06, 2019 (GMT -0500)
Buffalo Niagara International

Weather History for KBUF - July, 2019

Change the Weather History Date:

Friday, July 19, 2019

  Actual Average Record
Temperature  
Mean Temperature 77 °F 71 °F  
Max Temperature 82 °F 80 °F 92 °F (1916)
Min Temperature 72 °F 63 °F 50 °F (1912)
Degree Days  
Heating Degree Days 0 0  
Month to date heating degree days 0 2  
Since 1 June heating degree days 62 66  
Since 1 July heating degree days 0 2  
Cooling Degree Days 12 7  
Month to date cooling degree days 171 122  
Year to date cooling degree days 254 251  
Since 1 June cooling degree days 246 225  
Growing Degree Days 28 (Base 50)    
Moisture  
Dew Point 71 °F    
Average Humidity 80    
Maximum Humidity 85    
Minimum Humidity 74    
Precipitation  
Precipitation 0.11 in 0.11 in 1.88 in (2007)
Month to date precipitation 1.08 1.90  
Year to date precipitation 24.00 20.57  
Snow  
Snow 0.00 in 0.00 in 0.00 in ()
Month to date snowfall 0.0 0.0  
Since 1 June snowfall 0.0 0.0  
Since 1 July snowfall 0.0 0.0  
Snow Depth 0.00 in    
Sea Level Pressure  
Sea Level Pressure 29.84 in    
Wind  
Wind Speed 13 mph (SW)    
Max Wind Speed 30 mph    
Max Gust Speed 40 mph    
Visibility 10 miles    
Events Rain , Thunderstorm    
T = Trace of Precipitation, MM = Missing Value Source: NWS Daily Summary

Daily Weather History Graph

Daily Weather History Graph

Search for Another Location

Airport or City:

Astronomy

Jul. 19, 2019 Rise Set
Actual Time 5:52 AM EDT 8:49 PM EDT
Civil Twilight 5:19 AM EDT 9:22 PM EDT
Nautical Twilight 4:36 AM EDT 10:05 PM EDT
Astronomical Twilight 3:46 AM EDT 10:55 PM EDT
Moon 10:43 PM EDT (7/19) 8:19 AM EDT (7/19)
Length of Visible Light 16h 03m
Length of Day
14h 56m
Waning Gibbous, 93% of the Moon is Illuminated
Jul 19
Waning Gibbous
Jul 24
Last Quarter
Jul 31
New
Aug 7
First Quarter
Aug 15
Full

Hourly Weather History & Observations

Time (EDT) Temp. Heat Index Dew Point Humidity Pressure Visibility Wind Dir Wind Speed Gust Speed Precip Events Conditions
12:54 AM 75.0 °F - 68.0 °F 79% 29.84 in 10.0 mi SSW 8.1 mph - N/A   Partly Cloudy
1:54 AM 75.0 °F - 68.0 °F 79% 29.83 in 10.0 mi South 6.9 mph - N/A   Partly Cloudy
2:54 AM 79.0 °F - 69.1 °F 72% 29.82 in 10.0 mi SW 13.8 mph - N/A   Clear
3:54 AM 78.1 °F - 69.1 °F 74% 29.81 in 10.0 mi SW 13.8 mph - N/A   Clear
4:54 AM 78.1 °F - 70.0 °F 76% 29.81 in 10.0 mi SW 13.8 mph - N/A   Clear
5:54 AM 78.1 °F - 71.1 °F 79% 29.81 in 10.0 mi SW 13.8 mph 21.9 mph N/A   Clear
6:54 AM 78.1 °F - 71.1 °F 79% 29.83 in 10.0 mi WSW 13.8 mph - N/A   Partly Cloudy
7:54 AM 79.0 °F - 71.1 °F 77% 29.83 in 10.0 mi SW 13.8 mph 20.7 mph N/A   Partly Cloudy
8:54 AM 80.1 °F 83.8 °F 72.0 °F 76% 29.84 in 10.0 mi WSW 18.4 mph 26.5 mph N/A   Scattered Clouds
9:54 AM 82.0 °F 87.4 °F 73.0 °F 74% 29.85 in 10.0 mi WSW 13.8 mph 23.0 mph N/A   Mostly Cloudy
10:26 AM 81.0 °F 85.8 °F 73.0 °F 77% 29.86 in 10.0 mi WSW 19.6 mph 26.5 mph N/A   Mostly Cloudy
10:54 AM 81.0 °F 85.8 °F 73.0 °F 77% 29.86 in 10.0 mi WSW 19.6 mph 24.2 mph N/A   Mostly Cloudy
11:54 AM 81.0 °F 86.2 °F 73.9 °F 79% 29.84 in 10.0 mi SW 18.4 mph - N/A   Mostly Cloudy
12:54 PM 81.0 °F 86.2 °F 73.9 °F 79% 29.86 in 10.0 mi WSW 15.0 mph 26.5 mph N/A   Overcast
1:54 PM 82.0 °F 87.9 °F 73.9 °F 76% 29.85 in 10.0 mi WSW 18.4 mph 27.6 mph N/A   Mostly Cloudy
2:38 PM 81.0 °F 86.2 °F 73.9 °F 79% 29.88 in 10.0 mi SW 13.8 mph 24.2 mph N/A   Mostly Cloudy
2:49 PM 80.6 °F 85.4 °F 73.4 °F 79% 29.90 in 10.0 mi SW 17.3 mph 24.2 mph N/A Thunderstorm Thunderstorm
2:54 PM 80.1 °F 84.5 °F 73.9 °F 81% 29.88 in 10.0 mi WSW 15.0 mph - N/A Thunderstorm Thunderstorm
3:11 PM 73.0 °F - 64.9 °F 76% 29.90 in 1.5 mi West 15.0 mph 40.3 mph 0.02 in Rain , Thunderstorm Heavy Thunderstorms and Rain
3:22 PM 73.0 °F - 66.9 °F 81% 29.86 in 7.0 mi South 10.4 mph - 0.10 in Rain , Thunderstorm Light Thunderstorms and Rain
3:54 PM 73.4 °F - 68.0 °F 83% 29.84 in 10.0 mi SW 10.4 mph - 0.11 in Rain , Thunderstorm Light Thunderstorms and Rain
4:28 PM 73.9 °F - 69.1 °F 85% 29.84 in 10.0 mi SSW 11.5 mph - 0.00 in   Overcast
4:54 PM 75.0 °F - 70.0 °F 84% 29.83 in 10.0 mi SW 10.4 mph - 0.00 in   Overcast
5:54 PM 78.1 °F - 72.0 °F 81% 29.84 in 10.0 mi South 9.2 mph - N/A   Overcast
6:54 PM 80.1 °F 84.5 °F 73.9 °F 81% 29.83 in 10.0 mi SSW 11.5 mph - N/A   Overcast
7:54 PM 80.1 °F 85.1 °F 75.0 °F 85% 29.83 in 10.0 mi SW 12.7 mph - N/A   Overcast
8:54 PM 81.0 °F 86.7 °F 75.0 °F 82% 29.84 in 10.0 mi SW 11.5 mph - N/A   Overcast
9:54 PM 80.1 °F 84.2 °F 73.0 °F 79% 29.85 in 10.0 mi SSW 9.2 mph - N/A   Overcast
10:54 PM 79.0 °F - 72.0 °F 79% 29.85 in 10.0 mi SW 8.1 mph - N/A   Overcast
11:54 PM 79.0 °F - 72.0 °F 79% 29.84 in 10.0 mi SW 9.2 mph - N/A   Overcast